| time (UTC) | temp F | wind direction | speed MPH | gust MPH | rain 1hr in | rain 24hr in | rain mn in | humidity % | barometer mb |
| 20260505021555 | 62 | 360 | 4.0 | 11.0 | 0.00 | 0.01 | 0.01 | 75 | 1015.3 |
| 20260505020052 | 62 | 257 | 6.0 | 12.0 | 0.00 | 0.01 | 0.01 | 76 | 1015.2 |
| 20260505014556 | 63 | 248 | 6.0 | 11.0 | 0.00 | 0.01 | 0.01 | 75 | 1015.2 |
| 20260505013101 | 63 | 250 | 6.0 | 12.0 | 0.00 | 0.01 | 0.01 | 74 | 1015.4 |
| 20260505011557 | 63 | 249 | 7.0 | 13.0 | 0.00 | 0.01 | 0.01 | 73 | 1015.2 |
| 20260505010050 | 64 | 254 | 8.0 | 15.0 | 0.00 | 0.01 | 0.01 | 72 | 1015.3 |
| 20260505004552 | 64 | 246 | 8.0 | 15.0 | 0.00 | 0.01 | 0.01 | 70 | 1015.4 |
| 20260505003056 | 66 | 260 | 6.0 | 16.0 | 0.00 | 0.01 | 0.01 | 68 | 1015.4 |
| 20260505001553 | 66 | 360 | 8.0 | 14.0 | 0.00 | 0.01 | 0.01 | 67 | 1015.4 |
| 20260505000058 | 65 | 238 | 8.0 | 14.0 | 0.00 | 0.01 | 0.01 | 67 | 1015.4 |
| 20260504234602 | 65 | 284 | 6.0 | 16.0 | 0.00 | 0.01 | 0.01 | 69 | 1015.3 |
| 20260504233051 | 64 | 360 | 8.0 | 14.0 | 0.00 | 0.01 | 0.01 | 70 | 1015.4 |
| 20260504231601 | 65 | 259 | 6.0 | 15.0 | 0.00 | 0.01 | 0.01 | 67 | 1015.5 |
| 20260504230057 | 66 | 226 | 8.0 | 15.0 | 0.00 | 0.01 | 0.01 | 67 | 1015.4 |
| 20260504224556 | 66 | 240 | 8.0 | 14.0 | 0.00 | 0.01 | 0.01 | 65 | 1015.4 |
| 20260504223054 | 67 | 360 | 7.0 | 15.0 | 0.00 | 0.01 | 0.01 | 65 | 1015.6 |
| 20260504221600 | 66 | 234 | 8.0 | 15.0 | 0.00 | 0.01 | 0.01 | 68 | 1015.8 |
| 20260504220057 | 66 | 234 | 7.0 | 15.0 | 0.00 | 0.01 | 0.01 | 66 | 1016.0 |
| 20260504214554 | 67 | 240 | 8.0 | 17.0 | 0.00 | 0.01 | 0.01 | 66 | 1016.2 |
| 20260504213050 | 66 | 360 | 9.0 | 18.0 | 0.00 | 0.01 | 0.01 | 67 | 1016.3 |
| 20260504211557 | 66 | 267 | 7.0 | 15.0 | 0.00 | 0.01 | 0.01 | 66 | 1016.4 |
| 20260504210108 | 67 | 238 | 8.0 | 16.0 | 0.00 | 0.01 | 0.01 | 63 | 1016.5 |
| 20260504204600 | 66 | 259 | 7.0 | 16.0 | 0.00 | 0.01 | 0.01 | 66 | 1016.7 |
| 20260504203054 | 66 | 296 | 5.0 | 14.0 | 0.00 | 0.01 | 0.01 | 67 | 1016.7 |
| 20260504201555 | 66 | 329 | 6.0 | 15.0 | 0.00 | 0.01 | 0.01 | 65 | 1016.6 |
| 20260504194608 | 65 | 360 | 4.0 | 12.0 | 0.00 | 0.01 | 0.01 | 66 | 1016.7 |
| 20260504193053 | 65 | 304 | 7.0 | 13.0 | 0.00 | 0.01 | 0.01 | 66 | 1016.9 |
| 20260504191557 | 65 | 265 | 6.0 | 14.0 | 0.00 | 0.01 | 0.01 | 68 | 1017.1 |
| 20260504190117 | 65 | 294 | 5.0 | 14.0 | 0.00 | 0.01 | 0.01 | 69 | 1017.0 |
| 20260504184600 | 65 | 296 | 6.0 | 14.0 | 0.00 | 0.01 | 0.01 | 68 | 1017.3 |
| 20260504183053 | 64 | 290 | 7.0 | 14.0 | 0.00 | 0.01 | 0.01 | 68 | 1017.2 |
| 20260504181553 | 65 | 307 | 7.0 | 20.0 | 0.00 | 0.01 | 0.01 | 68 | 1017.1 |
| 20260504180142 | 64 | 276 | 7.0 | 12.0 | 0.00 | 0.01 | 0.01 | 70 | 1017.2 |
| 20260504174551 | 64 | 267 | 7.0 | 15.0 | 0.00 | 0.01 | 0.01 | 70 | 1016.9 |
| 20260504173100 | 64 | 248 | 7.0 | 15.0 | 0.00 | 0.01 | 0.01 | 69 | 1016.9 |
| 20260504171553 | 62 | 292 | 6.0 | 14.0 | 0.00 | 0.01 | 0.01 | 73 | 1016.8 |
| 20260504120111 | 58 | 0 | 0.0 | 3.0 | 0.00 | 0.00 | 0.00 | 81 | 1015.4 |
| 20260504081552 | 60 | 272 | 4.0 | 12.0 | 0.00 | 0.00 | 0.00 | 81 | 1015.8 |
| 20260504050120 | 62 | 0 | 1.0 | 7.0 | 0.00 | 0.00 | 0.00 | 76 | 1015.5 |
| 20260504044552 | 62 | 251 | 1.0 | 7.0 | 0.00 | 0.00 | 0.00 | 76 | 1015.5 |
| 20260504043059 | 62 | 252 | 2.0 | 6.0 | 0.00 | 0.00 | 0.00 | 75 | 1015.2 |
| 20260504041552 | 62 | 252 | 2.0 | 7.0 | 0.00 | 0.00 | 0.00 | 74 | 1015.2 |
| 20260504040103 | 62 | 254 | 2.0 | 6.0 | 0.00 | 0.00 | 0.00 | 73 | 1015.3 |
| 20260504034557 | 62 | 251 | 2.0 | 6.0 | 0.00 | 0.00 | 0.00 | 73 | 1015.3 |
| 20260504033051 | 62 | 241 | 3.0 | 7.0 | 0.00 | 0.00 | 0.00 | 73 | 1015.2 |
| 20260504031617 | 62 | 247 | 3.0 | 7.0 | 0.00 | 0.00 | 0.00 | 72 | 1015.0 |
| 20260504030058 | 62 | 0 | 2.0 | 7.0 | 0.00 | 0.00 | 0.00 | 72 | 1014.6 |
| 20260504024550 | 62 | 276 | 2.0 | 8.0 | 0.00 | 0.00 | 0.00 | 72 | 1014.4 |
| 20260504023050 | 62 | 247 | 2.0 | 11.0 | 0.00 | 0.00 | 0.00 | 72 | 1014.3 |